Time,TemperatureF,DewpointF,PressureIn,WindDirection,WindDirectionDegrees,WindSpeedMPH,WindSpeedGustMPH,Humidity,HourlyPrecipIn,Conditions,Clouds,dailyrainin,SoftwareType,DateUTC
2013-01-23 00:03:00,15.0,1.0,30.34,West,264,4.0,11.0,52,0.00,,,0.00,,2013-01-23 05:03:00,
2013-01-23 00:12:00,15.0,1.0,30.34,West,264,4.0,11.0,52,0.00,,,0.00,,2013-01-23 05:12:00,
2013-01-23 00:22:00,14.0,0.0,30.34,WNW,298,3.0,10.0,53,0.00,,,0.00,,2013-01-23 05:22:00,
2013-01-23 00:33:00,14.0,0.0,30.34,West,271,4.0,9.0,54,0.00,,,0.00,,2013-01-23 05:33:00,
2013-01-23 00:43:00,14.0,0.0,30.34,West,271,4.0,9.0,54,0.00,,,0.00,,2013-01-23 05:43:00,
2013-01-23 00:53:00,14.0,1.0,30.34,NNW,333,3.0,8.0,55,0.00,,,0.00,,2013-01-23 05:53:00,
2013-01-23 01:02:00,14.0,1.0,30.34,NNW,333,3.0,8.0,55,0.00,,,0.00,,2013-01-23 06:02:00,
2013-01-23 01:12:00,14.0,1.0,30.34,NNW,333,3.0,8.0,55,0.00,,,0.00,,2013-01-23 06:12:00,
2013-01-23 01:22:00,14.0,2.0,30.33,WNW,300,2.0,7.0,57,0.00,,,0.00,,2013-01-23 06:22:00,
2013-01-23 01:32:00,14.0,2.0,30.33,WNW,300,2.0,7.0,57,0.00,,,0.00,,2013-01-23 06:32:00,
2013-01-23 01:43:00,14.0,2.0,30.33,WNW,300,2.0,7.0,57,0.00,,,0.00,,2013-01-23 06:43:00,
2013-01-23 01:53:00,14.0,2.0,30.33,WNW,300,2.0,7.0,57,0.00,,,0.00,,2013-01-23 06:53:00,
2013-01-23 02:02:00,14.0,2.0,30.33,WNW,300,2.0,7.0,57,0.00,,,0.00,,2013-01-23 07:02:00,
2013-01-23 02:23:00,14.0,2.0,30.34,West,272,3.0,7.0,58,0.00,,,0.00,,2013-01-23 07:23:00,
2013-01-23 02:33:00,14.0,2.0,30.34,WNW,293,2.0,6.0,58,0.00,,,0.00,,2013-01-23 07:33:00,
2013-01-23 02:43:00,14.0,2.0,30.34,WNW,293,2.0,6.0,58,0.00,,,0.00,,2013-01-23 07:43:00,
2013-01-23 02:53:00,14.0,2.0,30.34,WNW,293,2.0,6.0,58,0.00,,,0.00,,2013-01-23 07:53:00,
2013-01-23 03:02:00,14.0,2.0,30.35,West,279,3.0,10.0,58,0.00,,,0.00,,2013-01-23 08:02:00,
2013-01-23 03:13:00,14.0,2.0,30.35,West,279,3.0,10.0,58,0.00,,,0.00,,2013-01-23 08:13:00,
2013-01-23 03:23:00,14.0,2.0,30.35,WNW,294,4.0,7.0,58,0.00,,,0.00,,2013-01-23 08:23:00,
2013-01-23 03:33:00,14.0,2.0,30.35,WNW,294,4.0,7.0,58,0.00,,,0.00,,2013-01-23 08:33:00,
2013-01-23 03:43:00,14.0,2.0,30.35,WNW,294,4.0,7.0,58,0.00,,,0.00,,2013-01-23 08:43:00,
2013-01-23 03:53:00,14.0,2.0,30.35,WNW,289,2.0,6.0,58,0.00,,,0.00,,2013-01-23 08:53:00,
2013-01-23 04:03:00,13.0,1.0,30.35,West,267,2.0,5.0,58,0.00,,,0.00,,2013-01-23 09:03:00,
2013-01-23 04:12:00,13.0,1.0,30.35,West,267,2.0,5.0,58,0.00,,,0.00,,2013-01-23 09:12:00,
2013-01-23 04:22:00,13.0,2.0,30.34,WNW,287,1.0,3.0,60,0.00,,,0.00,,2013-01-23 09:22:00,
2013-01-23 04:33:00,12.0,1.0,30.33,West,279,1.0,1.0,61,0.00,,,0.00,,2013-01-23 09:33:00,
2013-01-23 04:43:00,12.0,1.0,30.33,West,279,1.0,1.0,61,0.00,,,0.00,,2013-01-23 09:43:00,
2013-01-23 04:53:00,12.0,2.0,30.33,WNW,287,1.0,2.0,62,0.00,,,0.00,,2013-01-23 09:53:00,
2013-01-23 05:03:00,12.0,2.0,30.34,WNW,301,0.0,2.0,62,0.00,,,0.00,,2013-01-23 10:03:00,
2013-01-23 05:12:00,12.0,2.0,30.34,WNW,301,0.0,2.0,62,0.00,,,0.00,,2013-01-23 10:12:00,
2013-01-23 05:23:00,11.0,1.0,30.34,WNW,298,0.0,1.0,64,0.00,,,0.00,,2013-01-23 10:23:00,
2013-01-23 05:33:00,11.0,2.0,30.33,WNW,298,0.0,1.0,66,0.00,,,0.00,,2013-01-23 10:33:00,
2013-01-23 05:43:00,11.0,2.0,30.33,WNW,298,0.0,1.0,66,0.00,,,0.00,,2013-01-23 10:43:00,
2013-01-23 05:53:00,11.0,2.0,30.33,WNW,298,0.0,0.0,66,0.00,,,0.00,,2013-01-23 10:53:00,
2013-01-23 06:02:00,10.0,1.0,30.33,WNW,298,0.0,0.0,67,0.00,,,0.00,,2013-01-23 11:02:00,
2013-01-23 06:12:00,10.0,1.0,30.33,WNW,298,0.0,0.0,67,0.00,,,0.00,,2013-01-23 11:12:00,
2013-01-23 06:23:00,11.0,3.0,30.33,WNW,298,0.0,1.0,68,0.00,,,0.00,,2013-01-23 11:23:00,
2013-01-23 06:33:00,11.0,3.0,30.33,WNW,298,0.0,1.0,68,0.00,,,0.00,,2013-01-23 11:33:00,
2013-01-23 06:43:00,11.0,3.0,30.33,WNW,298,0.0,1.0,68,0.00,,,0.00,,2013-01-23 11:43:00,
2013-01-23 06:53:00,11.0,2.0,30.34,WNW,290,1.0,2.0,66,0.00,,,0.00,,2013-01-23 11:53:00,
2013-01-23 07:03:00,11.0,2.0,30.34,WNW,290,1.0,2.0,66,0.00,,,0.00,,2013-01-23 12:03:00,
2013-01-23 07:13:00,11.0,2.0,30.34,WNW,290,1.0,2.0,66,0.00,,,0.00,,2013-01-23 12:13:00,
2013-01-23 07:22:00,12.0,3.0,30.34,SSW,208,0.0,1.0,65,0.00,,,0.00,,2013-01-23 12:22:00,
2013-01-23 07:33:00,12.0,3.0,30.34,SSW,195,1.0,2.0,65,0.00,,,0.00,,2013-01-23 12:33:00,
2013-01-23 07:43:00,12.0,3.0,30.34,SSW,195,1.0,2.0,65,0.00,,,0.00,,2013-01-23 12:43:00,
2013-01-23 07:53:00,12.0,3.0,30.34,SSW,195,1.0,2.0,65,0.00,,,0.00,,2013-01-23 12:53:00,
2013-01-23 08:04:00,12.0,3.0,30.34,SSW,195,1.0,2.0,65,0.00,,,0.00,,2013-01-23 13:04:00,
2013-01-23 08:13:00,12.0,3.0,30.34,SSW,195,1.0,2.0,65,0.00,,,0.00,,2013-01-23 13:13:00,
2013-01-23 08:23:00,13.0,3.0,30.34,WSW,253,1.0,3.0,63,0.00,,,0.00,,2013-01-23 13:23:00,
2013-01-23 08:33:00,13.0,3.0,30.35,West,278,1.0,3.0,63,0.00,,,0.00,,2013-01-23 13:33:00,
2013-01-23 08:43:00,13.0,3.0,30.35,West,278,1.0,3.0,63,0.00,,,0.00,,2013-01-23 13:43:00,
2013-01-23 08:53:00,13.0,3.0,30.35,West,278,1.0,3.0,63,0.00,,,0.00,,2013-01-23 13:53:00,
2013-01-23 09:03:00,14.0,4.0,30.34,West,278,1.0,4.0,63,0.00,,,0.00,,2013-01-23 14:03:00,
2013-01-23 09:12:00,14.0,4.0,30.34,West,278,1.0,4.0,63,0.00,,,0.00,,2013-01-23 14:12:00,
2013-01-23 09:23:00,14.0,4.0,30.34,West,268,1.0,5.0,63,0.00,,,0.00,,2013-01-23 14:23:00,
2013-01-23 09:33:00,14.0,4.0,30.35,WNW,290,3.0,4.0,63,0.00,,,0.00,,2013-01-23 14:33:00,
2013-01-23 09:43:00,14.0,4.0,30.35,WNW,290,3.0,4.0,63,0.00,,,0.00,,2013-01-23 14:43:00,
2013-01-23 09:53:00,14.0,4.0,30.35,WNW,290,3.0,4.0,63,0.00,,,0.00,,2013-01-23 14:53:00,
2013-01-23 10:03:00,14.0,4.0,30.35,WNW,290,3.0,4.0,63,0.00,,,0.00,,2013-01-23 15:03:00,
2013-01-23 10:13:00,14.0,4.0,30.35,WNW,290,3.0,4.0,63,0.00,,,0.00,,2013-01-23 15:13:00,
2013-01-23 10:33:00,15.0,4.0,30.33,WNW,290,2.0,6.0,60,0.00,,,0.00,,2013-01-23 15:33:00,
2013-01-23 10:43:00,15.0,4.0,30.33,WNW,290,2.0,6.0,60,0.00,,,0.00,,2013-01-23 15:43:00,
2013-01-23 10:53:00,15.0,4.0,30.33,WNW,290,2.0,6.0,60,0.00,,,0.00,,2013-01-23 15:53:00,
2013-01-23 11:03:00,15.0,4.0,30.33,WNW,290,2.0,6.0,60,0.00,,,0.00,,2013-01-23 16:03:00,
2013-01-23 11:12:00,15.0,4.0,30.33,WNW,290,2.0,6.0,60,0.00,,,0.00,,2013-01-23 16:12:00,
2013-01-23 11:23:00,16.0,4.0,30.33,WSW,239,3.0,9.0,59,0.00,,,0.00,,2013-01-23 16:23:00,
2013-01-23 11:33:00,16.0,4.0,30.33,WSW,239,3.0,9.0,59,0.00,,,0.00,,2013-01-23 16:33:00,
2013-01-23 11:43:00,16.0,4.0,30.33,WSW,239,3.0,9.0,59,0.00,,,0.00,,2013-01-23 16:43:00,
2013-01-23 11:53:00,17.0,5.0,30.32,SSW,210,3.0,7.0,58,0.00,,,0.00,,2013-01-23 16:53:00,
2013-01-23 12:03:00,17.0,5.0,30.31,South,178,3.0,6.0,58,0.00,,,0.00,,2013-01-23 17:03:00,
2013-01-23 12:13:00,17.0,5.0,30.31,South,178,3.0,6.0,58,0.00,,,0.00,,2013-01-23 17:13:00,
2013-01-23 12:23:00,17.0,4.0,30.31,SSE,163,2.0,6.0,55,0.00,,,0.00,,2013-01-23 17:23:00,
2013-01-23 12:33:00,18.0,4.0,30.30,WNW,287,2.0,6.0,54,0.00,,,0.00,,2013-01-23 17:33:00,
2013-01-23 12:42:00,18.0,4.0,30.30,WNW,287,2.0,6.0,54,0.00,,,0.00,,2013-01-23 17:42:00,
2013-01-23 12:53:00,18.0,3.0,30.29,SSE,163,4.0,7.0,52,0.00,,,0.00,,2013-01-23 17:53:00,
2013-01-23 13:03:00,18.0,3.0,30.29,SSE,163,4.0,7.0,52,0.00,,,0.00,,2013-01-23 18:03:00,
2013-01-23 13:12:00,18.0,3.0,30.29,SSE,163,4.0,7.0,52,0.00,,,0.00,,2013-01-23 18:12:00,
2013-01-23 13:23:00,18.0,4.0,30.27,NW,321,3.0,8.0,53,0.00,,,0.00,,2013-01-23 18:23:00,
2013-01-23 13:33:00,18.0,4.0,30.27,NW,321,3.0,8.0,53,0.00,,,0.00,,2013-01-23 18:33:00,
2013-01-23 13:44:00,18.0,4.0,30.27,NW,321,3.0,8.0,53,0.00,,,0.00,,2013-01-23 18:44:00,
2013-01-23 13:53:00,18.0,4.0,30.27,NW,321,3.0,8.0,53,0.00,,,0.00,,2013-01-23 18:53:00,
2013-01-23 14:03:00,19.0,6.0,30.25,South,189,4.0,10.0,55,0.00,,,0.00,,2013-01-23 19:03:00,
2013-01-23 14:13:00,19.0,6.0,30.25,South,189,4.0,10.0,55,0.00,,,0.00,,2013-01-23 19:13:00,
2013-01-23 14:23:00,19.0,7.0,30.24,WSW,245,2.0,10.0,59,0.00,,,0.00,,2013-01-23 19:23:00,
2013-01-23 14:33:00,19.0,6.0,30.23,West,262,5.0,8.0,57,0.00,,,0.00,,2013-01-23 19:33:00,
2013-01-23 14:43:00,19.0,6.0,30.23,West,262,5.0,8.0,57,0.00,,,0.00,,2013-01-23 19:43:00,
2013-01-23 14:53:00,19.0,6.0,30.23,West,262,5.0,8.0,57,0.00,,,0.00,,2013-01-23 19:53:00,
2013-01-23 15:03:00,19.0,6.0,30.21,West,265,1.0,7.0,57,0.00,,,0.00,,2013-01-23 20:03:00,
2013-01-23 15:13:00,19.0,6.0,30.21,West,265,1.0,7.0,57,0.00,,,0.00,,2013-01-23 20:13:00,
2013-01-23 15:23:00,20.0,7.0,30.20,SSW,208,5.0,7.0,56,0.00,,,0.00,,2013-01-23 20:23:00,
2013-01-23 15:33:00,20.0,7.0,30.20,SSW,208,5.0,7.0,56,0.00,,,0.00,,2013-01-23 20:33:00,
2013-01-23 15:43:00,20.0,7.0,30.20,SSW,208,5.0,7.0,56,0.00,,,0.00,,2013-01-23 20:43:00,
2013-01-23 15:54:00,20.0,7.0,30.20,SSW,208,5.0,7.0,56,0.00,,,0.00,,2013-01-23 20:54:00,
2013-01-23 16:03:00,20.0,6.0,30.19,SSE,161,3.0,5.0,53,0.00,,,0.00,,2013-01-23 21:03:00,
2013-01-23 16:12:00,20.0,6.0,30.19,SSE,161,3.0,5.0,53,0.00,,,0.00,,2013-01-23 21:12:00,
2013-01-23 16:23:00,20.0,6.0,30.18,South,189,3.0,5.0,55,0.00,,,0.00,,2013-01-23 21:23:00,
2013-01-23 16:33:00,20.0,6.0,30.18,South,177,2.0,7.0,55,0.00,,,0.00,,2013-01-23 21:33:00,
2013-01-23 16:43:00,20.0,6.0,30.18,South,177,2.0,7.0,55,0.00,,,0.00,,2013-01-23 21:43:00,
2013-01-23 16:53:00,20.0,6.0,30.18,South,177,2.0,7.0,55,0.00,,,0.00,,2013-01-23 21:53:00,
2013-01-23 17:03:00,20.0,6.0,30.18,South,177,2.0,7.0,55,0.00,,,0.00,,2013-01-23 22:03:00,
2013-01-23 17:12:00,20.0,6.0,30.18,South,177,2.0,7.0,55,0.00,,,0.00,,2013-01-23 22:12:00,
2013-01-23 18:23:00,21.0,8.0,30.15,SE,125,0.0,1.0,57,0.00,,,0.00,,2013-01-23 23:23:00,
2013-01-23 18:33:00,21.0,8.0,30.15,SE,125,0.0,1.0,57,0.00,,,0.00,,2013-01-23 23:33:00,
2013-01-23 18:43:00,21.0,8.0,30.15,SE,125,0.0,1.0,57,0.00,,,0.00,,2013-01-23 23:43:00,
2013-01-23 18:53:00,21.0,9.0,30.14,SE,125,0.0,1.0,58,0.00,,,0.00,,2013-01-23 23:53:00,
2013-01-23 19:03:00,21.0,9.0,30.14,SE,125,0.0,0.0,58,0.00,,,0.00,,2013-01-24 00:03:00,
2013-01-23 19:12:00,21.0,9.0,30.14,SE,125,0.0,0.0,58,0.00,,,0.00,,2013-01-24 00:12:00,
2013-01-23 19:22:00,21.0,9.0,30.14,SE,125,0.0,0.0,59,0.00,,,0.00,,2013-01-24 00:22:00,
2013-01-23 19:32:00,21.0,9.0,30.14,East,89,0.0,1.0,58,0.00,,,0.00,,2013-01-24 00:32:00,
2013-01-23 19:43:00,21.0,9.0,30.14,East,89,0.0,1.0,58,0.00,,,0.00,,2013-01-24 00:43:00,
2013-01-23 19:53:00,21.0,9.0,30.13,East,89,0.0,1.0,58,0.00,,,0.00,,2013-01-24 00:53:00,
2013-01-23 20:03:00,21.0,9.0,30.13,East,89,0.0,1.0,58,0.00,,,0.00,,2013-01-24 01:03:00,
2013-01-23 20:12:00,21.0,9.0,30.13,East,89,0.0,1.0,58,0.00,,,0.00,,2013-01-24 01:12:00,
2013-01-23 20:23:00,21.0,9.0,30.13,East,89,0.0,1.0,58,0.00,,,0.00,,2013-01-24 01:23:00,
2013-01-23 20:33:00,21.0,9.0,30.13,East,80,0.0,1.0,59,0.00,,,0.00,,2013-01-24 01:33:00,
2013-01-23 20:43:00,21.0,9.0,30.13,East,80,0.0,1.0,59,0.00,,,0.00,,2013-01-24 01:43:00,
2013-01-23 20:53:00,21.0,9.0,30.12,East,80,0.0,1.0,58,0.00,,,0.00,,2013-01-24 01:53:00,
2013-01-23 21:03:00,21.0,9.0,30.12,East,80,0.0,1.0,59,0.00,,,0.00,,2013-01-24 02:03:00,
2013-01-23 21:12:00,21.0,9.0,30.12,East,80,0.0,1.0,59,0.00,,,0.00,,2013-01-24 02:12:00,
2013-01-23 21:22:00,21.0,9.0,30.12,ENE,78,0.0,1.0,59,0.00,,,0.00,,2013-01-24 02:22:00,
2013-01-23 21:33:00,21.0,9.0,30.13,NNW,335,1.0,2.0,59,0.00,,,0.00,,2013-01-24 02:33:00,
2013-01-23 21:42:00,21.0,9.0,30.13,NNW,335,1.0,2.0,59,0.00,,,0.00,,2013-01-24 02:42:00,
2013-01-23 21:52:00,21.0,9.0,30.13,NNW,335,1.0,2.0,59,0.00,,,0.00,,2013-01-24 02:52:00,
2013-01-23 22:02:00,21.0,9.0,30.13,NNW,335,1.0,2.0,59,0.00,,,0.00,,2013-01-24 03:02:00,
2013-01-23 22:12:00,21.0,9.0,30.13,NNW,335,1.0,2.0,59,0.00,,,0.00,,2013-01-24 03:12:00,
2013-01-23 22:22:00,21.0,9.0,30.12,SSW,200,0.0,1.0,59,0.00,,,0.00,,2013-01-24 03:22:00,
2013-01-23 22:33:00,20.0,8.0,30.12,South,190,0.0,1.0,60,0.00,,,0.00,,2013-01-24 03:33:00,
2013-01-23 22:43:00,20.0,8.0,30.12,South,190,0.0,1.0,60,0.00,,,0.00,,2013-01-24 03:43:00,
2013-01-23 22:53:00,19.0,9.0,30.11,South,189,0.0,1.0,63,0.00,,,0.00,,2013-01-24 03:53:00,
2013-01-23 23:02:00,19.0,9.0,30.11,South,190,0.0,1.0,65,0.00,,,0.00,,2013-01-24 04:02:00,
2013-01-23 23:12:00,19.0,9.0,30.11,South,190,0.0,1.0,65,0.00,,,0.00,,2013-01-24 04:12:00,
2013-01-23 23:22:00,19.0,10.0,30.11,SSE,153,0.0,2.0,66,0.00,,,0.00,,2013-01-24 04:22:00,
2013-01-23 23:33:00,19.0,10.0,30.11,SSE,153,0.0,2.0,66,0.00,,,0.00,,2013-01-24 04:33:00,
2013-01-23 23:42:00,19.0,10.0,30.11,SSE,153,0.0,2.0,66,0.00,,,0.00,,2013-01-24 04:42:00,
2013-01-23 23:53:00,20.0,9.0,30.10,South,181,2.0,3.0,63,0.00,,,0.00,,2013-01-24 04:53:00,